EW8742 Weather Reports


time (UTC)temp
C
wind
direction
speed
KPH
gust
KPH
rain 1hr
cm
rain 24hr
cm
rain mn
cm
humidity
%
barometer
mb
20260502231833 13 89 3.2 8.0 0.00 0.00 0.00 86 1012.8
20260502231334 13 89 3.2 8.0 0.00 0.00 0.00 86 1012.7
20260502230347 13 28 1.6 4.8 0.00 0.00 0.00 86 1013.0
20260502225334 13 100 1.6 4.8 0.00 0.00 0.00 85 1013.2
20260502224832 13 46 1.6 4.8 0.00 0.00 0.00 85 1013.3
20260502224331 13 28 1.6 3.2 0.00 0.00 0.00 85 1013.4
20260502223832 13 135 1.6 4.8 0.00 0.00 0.00 85 1013.4
20260502223335 13 46 1.6 4.8 0.00 0.00 0.00 85 1013.5
20260502222832 13 72 1.6 4.8 0.00 0.00 0.00 85 1013.6
20260502222332 13 81 1.6 14.5 0.00 0.00 0.00 86 1014.0
20260502221832 13 108 3.2 14.5 0.00 0.00 0.00 86 1014.1
20260502221332 13 135 4.8 16.1 0.00 0.00 0.00 87 1014.4
20260502220832 13 163 6.4 16.1 0.00 0.00 0.00 87 1014.7
20260502220331 13 135 3.2 9.7 0.00 0.00 0.00 87 1014.4
20260502215332 13 81 3.2 8.0 0.00 0.00 0.00 86 1013.9
20260502214832 13 49 3.2 8.0 0.00 0.00 0.00 86 1014.1
20260502213832 13 314 1.6 4.8 0.00 0.00 0.00 86 1014.1
20260502213332 13 63 1.6 4.8 0.00 0.00 0.00 86 1014.1
20260502212331 14 314 1.6 4.8 0.00 0.00 0.00 87 1014.1
20260502211330 14 68 1.6 4.8 0.00 0.00 0.00 86 1014.0
20260502210829 14 89 1.6 4.8 0.00 0.00 0.00 86 1013.9
20260502210329 14 59 1.6 4.8 0.00 0.00 0.00 86 1014.0
20260502205830 14 178 1.6 4.8 0.00 0.00 0.00 85 1013.9
20260502205327 15 89 1.6 4.8 0.00 0.00 0.00 85 1013.9
20260502204826 15 72 3.2 6.4 0.00 0.00 0.00 85 1013.9
20260502204332 15 56 3.2 6.4 0.00 0.00 0.00 85 1014.0
20260502203325 15 82 3.2 6.4 0.00 0.00 0.00 85 1013.9
20260502202323 15 89 3.2 8.0 0.00 0.00 0.00 84 1014.1
20260502201823 15 46 3.2 6.4 0.00 0.00 0.00 84 1014.2
20260502201323 15 46 3.2 6.4 0.00 0.00 0.00 84 1014.2
20260502200822 16 314 3.2 6.4 0.00 0.00 0.00 83 1014.1
20260502200321 16 20 3.2 6.4 0.00 0.00 0.00 83 1014.3
20260502195820 16 269 1.6 6.4 0.00 0.00 0.00 82 1014.3
20260502195319 16 63 1.6 6.4 0.00 0.00 0.00 81 1014.3
20260502194823 16 89 1.6 6.4 0.00 0.00 0.00 81 1014.3
20260502194320 17 28 1.6 6.4 0.00 0.00 0.00 80 1014.2
20260502193814 17 25 1.6 6.4 0.00 0.00 0.00 78 1014.2
20260502193314 17 46 1.6 6.4 0.00 0.00 0.00 77 1014.0
20260502192815 18 28 3.2 6.4 0.00 0.00 0.00 75 1014.0
20260502192310 18 56 3.2 6.4 0.00 0.00 0.00 73 1013.9
20260502191810 18 89 3.2 8.0 0.00 0.00 0.00 71 1013.9
20260502191308 19 1 3.2 8.0 0.00 0.00 0.00 71 1013.8
20260502190805 19 1 3.2 6.4 0.00 0.00 0.00 70 1013.7
20260502190305 19 269 3.2 6.4 0.00 0.00 0.00 70 1013.7
20260502185805 19 296 3.2 9.7 0.00 0.00 0.00 69 1013.6
20260502184805 20 305 3.2 8.0 0.00 0.00 0.00 67 1013.8
20260502184303 20 316 3.2 8.0 0.00 0.00 0.00 66 1013.8
20260502183804 20 321 1.6 6.4 0.00 0.00 0.00 65 1013.7
20260502183301 20 324 3.2 6.4 0.00 0.00 0.00 65 1013.7
20260502182259 20 342 1.6 6.4 0.00 0.00 0.00 63 1013.7
20260502181801 21 269 1.6 6.4 0.00 0.00 0.00 62 1013.7
20260502181257 21 1 1.6 6.4 0.00 0.00 0.00 62 1013.7
20260502180758 21 234 1.6 6.4 0.00 0.00 0.00 61 1013.8
20260502180256 21 145 1.6 9.7 0.00 0.00 0.00 60 1013.8
20260502170244 23 213 6.4 14.5 0.00 0.00 0.00 54 1014.1
20260502164244 23 269 6.4 16.1 0.00 0.00 0.00 54 1014.2
20260502163744 23 213 8.0 16.1 0.00 0.00 0.00 54 1014.3
20260502163244 23 245 8.0 16.1 0.00 0.00 0.00 54 1014.3
20260502162745 23 262 6.4 14.5 0.00 0.00 0.00 54 1014.3
20260502161744 24 237 8.0 14.5 0.00 0.00 0.00 53 1014.4
20260502160744 23 283 6.4 14.5 0.00 0.00 0.00 55 1014.4
20260502160244 23 252 6.4 14.5 0.00 0.00 0.00 53 1014.4
20260502152234 24 246 9.7 17.7 0.00 0.00 0.00 51 1014.9
20260502151232 24 275 9.7 17.7 0.00 0.00 0.00 51 1015.0
20260502150732 24 247 9.7 17.7 0.00 0.00 0.00 50 1015.0
20260502150233 25 269 8.0 17.7 0.00 0.00 0.00 50 1015.0
20260502130707 25 218 9.7 19.3 0.00 0.00 0.00 40 1015.5
20260502130206 26 245 8.0 19.3 0.00 0.00 0.00 41 1015.4
20260502123706 25 201 9.7 20.9 0.00 0.00 0.00 41 1015.6
20260502123204 25 203 11.3 24.1 0.00 0.00 0.00 39 1015.6
20260502122204 25 248 9.7 20.9 0.00 0.00 0.00 42 1015.6
20260502121704 25 214 9.7 24.1 0.00 0.00 0.00 41 1015.6
20260502120659 24 229 11.3 25.7 0.00 0.00 0.00 41 1015.7
20260502120159 25 195 11.3 25.7 0.00 0.00 0.00 40 1015.8
20260502115701 25 214 11.3 24.1 0.00 0.00 0.00 40 1015.8
20260502115159 25 243 11.3 24.1 0.00 0.00 0.00 40 1015.9
20260502114657 25 173 11.3 20.9 0.00 0.00 0.00 41 1016.1
20260502114159 25 222 14.5 25.7 0.00 0.00 0.00 38 1016.1
20260502113658 25 220 12.9 25.7 0.00 0.00 0.00 40 1016.3
20260502111653 26 237 9.7 22.5 0.00 0.00 0.00 32 1016.4
20260502110152 25 222 9.7 22.5 0.00 0.00 0.00 33 1016.5
20260502105652 25 213 8.0 17.7 0.00 0.00 0.00 32 1016.5
20260502105152 25 202 6.4 16.1 0.00 0.00 0.00 32 1016.7
20260502104150 24 206 8.0 17.7 0.00 0.00 0.00 34 1016.6
20260502103649 24 220 9.7 19.3 0.00 0.00 0.00 35 1016.7
20260502103149 24 228 9.7 19.3 0.00 0.00 0.00 35 1016.6
20260502102648 23 215 8.0 17.7 0.00 0.00 0.00 35 1016.8
20260502102151 23 225 8.0 17.7 0.00 0.00 0.00 36 1016.8
20260502101146 23 235 14.5 22.5 0.00 0.00 0.00 35 1016.9
20260502100645 23 225 12.9 24.1 0.00 0.00 0.00 35 1017.1
20260502100143 23 176 11.3 24.1 0.00 0.00 0.00 32 1017.0
20260502091136 23 165 6.4 16.1 0.00 0.00 0.00 35 1017.1
20260502090635 23 212 8.0 17.7 0.00 0.00 0.00 35 1017.0
20260502090134 23 216 8.0 17.7 0.00 0.00 0.00 36 1017.1
20260502071121 18 135 4.8 14.5 0.00 0.00 0.00 51 1017.8
20260502070621 18 201 6.4 14.5 0.00 0.00 0.00 52 1017.8
20260502064621 16 210 8.0 16.1 0.00 0.00 0.00 55 1017.7
20260502064121 16 150 9.7 17.7 0.00 0.00 0.00 57 1017.8
20260502063621 16 148 9.7 17.7 0.00 0.00 0.00 59 1017.8
20260502063120 15 155 8.0 16.1 0.00 0.00 0.00 59 1017.8
20260502062619 15 171 8.0 16.1 0.00 0.00 0.00 60 1017.8
20260502062119 15 163 8.0 16.1 0.00 0.00 0.00 60 1017.8
20260502061611 15 178 8.0 16.1 0.00 0.00 0.00 61 1017.7
20260502061111 14 132 6.4 14.5 0.00 0.00 0.00 61 1017.8
20260502060611 14 175 6.4 12.9 0.00 0.00 0.00 63 1017.9
20260502060110 13 135 4.8 12.9 0.00 0.00 0.00 63 1018.0
20260502055609 13 146 4.8 11.3 0.00 0.00 0.00 64 1018.0
20260502055105 13 170 4.8 11.3 0.00 0.00 0.00 65 1018.0
20260502054605 12 143 4.8 11.3 0.00 0.00 0.00 67 1018.0
20260502054104 12 162 6.4 12.9 0.00 0.00 0.00 67 1017.9
20260502053604 12 193 8.0 16.1 0.00 0.00 0.00 67 1017.9
20260502053105 11 168 8.0 16.1 0.00 0.00 0.00 67 1018.0
20260502052100 11 169 6.4 16.1 0.00 0.00 0.00 68 1017.9
20260502051057 11 166 6.4 12.9 0.00 0.00 0.00 68 1018.0
20260502050610 11 165 8.0 12.9 0.00 0.00 0.00 68 1017.9
20260502050058 11 135 8.0 14.5 0.00 0.00 0.00 67 1017.9
20260502045557 11 146 6.4 14.5 0.00 0.00 0.00 67 1017.9
20260502044553 11 136 6.4 16.1 0.00 0.00 0.00 67 1017.9
20260502044055 11 178 6.4 14.5 0.00 0.00 0.00 68 1018.0
20260502043556 11 136 6.4 14.5 0.00 0.00 0.00 68 1018.0
20260502043048 11 152 6.4 14.5 0.00 0.00 0.00 68 1018.0
20260502042546 11 174 6.4 12.9 0.00 0.00 0.00 68 1018.0
20260502042047 11 167 6.4 12.9 0.00 0.00 0.00 67 1018.0
20260502041043 11 137 6.4 16.1 0.00 0.00 0.00 67 1018.1
20260502040545 11 156 6.4 16.1 0.00 0.00 0.00 67 1018.2
20260502040041 11 169 6.4 16.1 0.00 0.00 0.00 67 1018.1
20260502035542 11 131 6.4 16.1 0.00 0.00 0.00 66 1018.2
20260502034539 11 155 6.4 12.9 0.00 0.00 0.00 65 1018.3
20260502034040 11 127 6.4 12.9 0.00 0.00 0.00 65 1018.3
20260502033538 11 142 8.0 14.5 0.00 0.00 0.00 65 1018.2
20260502032537 11 136 6.4 12.9 0.00 0.00 0.00 64 1018.3
20260502032036 11 133 8.0 12.9 0.00 0.00 0.00 64 1018.3
20260502031536 12 138 8.0 12.9 0.00 0.00 0.00 63 1018.3
20260502031035 12 137 8.0 14.5 0.00 0.00 0.00 63 1018.3
20260502030534 12 149 8.0 14.5 0.00 0.00 0.00 63 1018.4
20260502030032 12 137 8.0 17.7 0.00 0.00 0.00 63 1018.4
20260502025533 12 146 8.0 17.7 0.00 0.00 0.00 63 1018.5
20260502025032 12 131 8.0 16.1 0.00 0.00 0.00 63 1018.5
20260502024532 12 132 8.0 14.5 0.00 0.00 0.00 63 1018.6
20260502024038 12 133 8.0 14.5 0.00 0.00 0.00 63 1018.6
20260502023536 12 150 8.0 14.5 0.00 0.00 0.00 63 1018.6
20260502023033 12 165 8.0 14.5 0.00 0.00 0.00 63 1018.7
20260502022531 12 148 8.0 14.5 0.00 0.00 0.00 63 1018.8
20260502022031 12 152 8.0 14.5 0.00 0.00 0.00 63 1018.8
20260502021532 12 163 6.4 16.1 0.00 0.00 0.00 63 1018.8
20260502021030 12 137 6.4 16.1 0.00 0.00 0.00 63 1018.9
20260502020030 12 195 6.4 16.1 0.00 0.00 0.00 62 1019.1
20260502015528 12 122 6.4 11.3 0.00 0.00 0.00 62 1019.0
20260502015027 12 126 6.4 11.3 0.00 0.00 0.00 62 1019.1
20260502014528 12 105 6.4 12.9 0.00 0.00 0.00 62 1019.1
20260502014028 12 119 8.0 12.9 0.00 0.00 0.00 62 1019.1
20260502013525 12 160 8.0 14.5 0.00 0.00 0.00 62 1019.2
20260502013028 12 157 8.0 14.5 0.00 0.00 0.00 62 1019.3
20260502012525 13 135 6.4 11.3 0.00 0.00 0.00 62 1019.2
20260502011522 13 160 6.4 12.9 0.00 0.00 0.00 62 1019.4
20260502010018 13 114 6.4 12.9 0.00 0.00 0.00 62 1019.5
20260502005519 13 124 6.4 12.9 0.00 0.00 0.00 62 1019.6
20260502005020 13 135 6.4 12.9 0.00 0.00 0.00 62 1019.7
20260502004516 13 122 6.4 12.9 0.00 0.00 0.00 61 1019.7
20260502004015 13 141 8.0 12.9 0.00 0.00 0.00 61 1019.8
20260502003514 13 138 6.4 12.9 0.00 0.00 0.00 61 1019.8
20260502003012 13 114 6.4 12.9 0.00 0.00 0.00 61 1019.9
20260502002514 13 152 6.4 11.3 0.00 0.00 0.00 62 1020.0
20260502002010 13 155 6.4 9.7 0.00 0.00 0.00 62 1020.0
20260502001508 13 138 4.8 9.7 0.00 0.00 0.00 62 1020.1
20260502001009 13 147 4.8 9.7 0.00 0.00 0.00 62 1020.1
20260502000505 13 148 4.8 9.7 0.00 0.00 0.00 62 1020.2
20260502000005 13 163 4.8 11.3 0.00 0.00 0.00 62 1020.1
20260501235506 13 157 4.8 11.3 0.00 0.00 0.00 61 1020.2
20260501234504 13 135 4.8 11.3 0.00 0.00 0.00 62 1020.2
20260501234007 13 159 4.8 9.7 0.00 0.00 0.00 62 1020.4
20260501233504 13 138 4.8 9.7 0.00 0.00 0.00 62 1020.3
20260501233004 13 128 4.8 9.7 0.00 0.00 0.00 62 1020.3